This is the latest recevied weather packets stored in our database for station/object KY0TEQ-13. If no packets are shown the sender has not sent any weather packets the latest 10 day(s).
| Time | Temp. | Humidity | Pressure | Rain* | Wind** | Luminosity | Snow |
|---|---|---|---|---|---|---|---|
| 1787946472 | 30° C | 22% | 1311.9 hPa | 0 mm | - | 357 W/m² | - |
| 1787946168 | 30° C | 23% | 1312.1 hPa | 0 mm | - | 526 W/m² | - |
| 1787945868 | 29.44° C | 23% | 1312.1 hPa | 0 mm | - | 644 W/m² | - |
| 1787945563 | 28.89° C | 23% | 1312.4 hPa | 0 mm | - | 679 W/m² | - |
| 1787945258 | 29.44° C | 24% | 1312.3 hPa | 0 mm | - | 508 W/m² | - |
| 1787944958 | 29.44° C | 23% | 1312.5 hPa | 0 mm | - | 514 W/m² | - |
| 1787944656 | 30.56° C | 22% | 1312.8 hPa | 0 mm | - | 714 W/m² | - |
| 1787944352 | 28.89° C | 22% | 1312.8 hPa | 0 mm | - | 752 W/m² | - |
| 1787944047 | 28.89° C | 23% | 1312.9 hPa | 0 mm | - | 786 W/m² | - |
| 1787943741 | 28.89° C | 25% | 1312.9 hPa | 0 mm | - | 791 W/m² | - |
| 1787943437 | 27.78° C | 24% | 1313 hPa | 0 mm | - | 655 W/m² | - |
| 1787943132 | 27.78° C | 25% | 1313.3 hPa | 0 mm | - | 571 W/m² | - |
| 1787942821 | 27.78° C | 25% | 1313.2 hPa | 0 mm | - | 545 W/m² | - |
| 1787942516 | 26.67° C | 26% | 1313.2 hPa | 0 mm | - | 762 W/m² | - |
| 1787942211 | 27.22° C | 27% | 1313.3 hPa | 0 mm | - | 469 W/m² | - |
| 1787941905 | 28.33° C | 26% | 1313.4 hPa | 0 mm | - | 296 W/m² | - |
| 1787941599 | 28.33° C | 24% | 1313.4 hPa | 0 mm | - | 780 W/m² | - |
| 1787941294 | 27.78° C | 26% | 1313.4 hPa | 0 mm | - | 743 W/m² | - |
| 1787940993 | 27.78° C | 25% | 1313.5 hPa | 0 mm | - | 704 W/m² | - |
| 1787940692 | 27.78° C | 25% | 1313.8 hPa | 0 mm | - | 715 W/m² | - |
| 1787940390 | 28.33° C | 26% | 1313.8 hPa | 0 mm | - | 728 W/m² | - |
| 1787940085 | 28.33° C | 24% | 1313.9 hPa | 0 mm | - | 721 W/m² | - |
| 1787939785 | 27.22° C | 27% | 1313.9 hPa | 0 mm | - | 669 W/m² | - |
| 1787939479 | 27.78° C | 28% | 1314.1 hPa | 0 mm | - | 694 W/m² | - |
| 1787939174 | 27.78° C | 28% | 1314.1 hPa | 0 mm | - | 667 W/m² | - |
* Rain latest hour (hover to see other rain measurements)
** Current wind speed in m/s (hover to see current wind gust speed)